STARLINK-32321 (61065 NORAD) Tracking and Keplerian Element Data

This shows tracking and keplerian element data for the satellite.

Feedback or suggestion? Click here.




ElementValue
Catalog61065
NameSTARLINK-32321
Epoch Orbit476
Epoch Day286.41199303
Epoch Year2024
RAAN324.3975
Inclination53.1597
Eccentricity0.0001104
Argument of Perigee89.7831
Mean Anonmoly270.33
Mean Motion15.39584481
Decay Rate-9.899E-05
L11 61065U 24164R 24286.41199303 -.00009899 00000+0 -23809-3 0 9998
L22 61065 53.1597 324.3975 0001104 89.7831 270.3300 15.39584481 4765



Live tracking and technical data element details for STARLINK-32321 (NORAD 61065). STARLINK-32321 can be tracked NOW for your location showing map with azimuth and elevation plus other details from your city location.







IsCatalogInMostPopularTable: catalog: 61065, numindb: 25
Update: records affected: 1



GetName: 61065 STARLINK-32321

Hit Count: updated at: Wed, 04 Dec 2024 08:41:04 GMT